Location: Miss�
(46.9484°N, 0.1922°W)
Time: 07:41:11
(UTC+00:00)

Cosmos 44 Rocket - Pass Details

Date: 02 March 2021
Orbit: 636 x 754 km, 65.1° (Epoch: 11 April)

Event Time Altitude Azimuth Distance (km) Brightness Sun altitude
Rises 19:19:04 0° 320° (NW) 3,211 7.5 -16.3°
Reaches altitude 10° 19:21:31 10° 315° (NW) 2,285 6.7 -16.7°
Maximum altitude 19:26:36 53° 240° (WSW) 923 4.2 -17.6°
Drops below altitude 10° 19:31:38 10° 165° (SSE) 2,252 5.7 -18.4°
Enters shadow 19:32:12 - 163° (SSE) 2,465 5.9 -18.5°
